Powrót do katalogu

OPS 4682 DEB

AktywnyPO
NORAD 19511·DEBRIS·🇺🇸 United States

Wystrzelony Apr 3, 1965 z Vandenberg Space Force Base

Loading…

Następne Przeloty (najbliższe 24 godziny)

TLE

ŚwieżeSource: Space-Track

Epoka: Sep 14, 2026, 11:25 UTC

1 19511U 65027AU  26257.47570787  .00000210  00000-0  69227-3 0  9996
2 19511  90.2417   0.4603 0031659 172.4218 318.7167 12.97894370813481

Śledź OPS 4682 DEB w czasie rzeczywistym z AllMySat

Download on the App Store